Skip Page Navigation
NASA JPL Caltech
NASA Logo - Jet Propulsion Laboratory + View the NASA Portal
+ Near-Earth Object (NEO) Program
Search JPL
JPL Home Earth Solar System Stars & Galaxies Technology
JPL Solar System Dynamics
BODIES ORBITS EPHEMERIDES TOOLS PHYSICAL DATA DISCOVERY FAQ SITE MAP
JPL Small-Body Database Browser
Search: [ help ]  
330119 (2005 YL)
Classification: Main-belt Asteroid          SPK-ID: 2330119
Ephemeris | Orbit Diagram | Orbital Elements | Physical Parameters | Discovery Circumstances ]

[ hide orbit diagram ]
Orbit Diagram
Note: Make sure you have Java enabled on your browser to see the applet. This applet is provided as a 3D orbit visualization tool. The applet was implemented using 2-body methods, and hence should not be used for determining accurate long-term trajectories (over several years or decades) or planetary encounter circumstances. For accurate long-term ephemerides, please instead use our Horizons system.
Orbit Viewer

Additional Notes: the orbits shown in the applet are color coded. The planets are white lines, and the asteroid/comet is a blue line. The bright white line indicates the portion of the orbit that is above the ecliptic plane, and the darker portion is below the ecliptic plane. Likewise for the asteroid/comet orbit, the light blue indicates the portion above the ecliptic plane, and the dark blue the portion below the ecliptic plane.

Orbit Viewer applet originally written and kindly provided by Osamu Ajiki (AstroArts), and further modified by Ron Baalke (JPL).


Orbital Elements at Epoch 2456400.5 (2013-Apr-18.0) TDB
Reference: MPO230545 (heliocentric ecliptic J2000)
 Element Value Uncertainty (1-sigma)   Units 
e 0.0370183 n/a  
a 2.7171342 n/a AU
q 2.6165505 n/a AU
i 4.71389 n/a deg
node 264.52018 n/a deg
peri 112.28138 n/a deg
M 295.45922 n/a deg
tp 2456693.7896600
(2014-Feb-05.28966000)
n/a JED
period 1635.9312300
4.48
n/a
n/a
d
yr
n 0.22005815 n/a deg/d
Q 2.8177179 n/a AU
  Orbit Determination Parameters
   # obs. used (total)      67  
   first obs. used      2000-??-??  
   last obs. used      2012-05-20  
   # oppositions      5  
   planetary ephem.      DE403  
   condition code      0  
   fit RMS      0.39  
   data source      MPC:mpu  
   producer      MPCADO  

Additional Information
 T_jup = 3.354 

Ephemeris | Orbit Diagram | Orbital Elements | Physical Parameters | Discovery Circumstances ]

Physical Parameter Table
Parameter Symbol Value Units Sigma Reference Notes
absolute magnitude H 16.8 mag n/a MPO230545  

330119 (2005 YL)          Discovered 2005-Dec-20 by Calvin College at Calvin-Rehoboth (G98)
Reference: 20120604/Numbers.arcLast Updated: 2012-06-06

Alternate Designations
 2005 YL = 2011 BY47 
Ephemeris | Orbit Diagram | Orbital Elements | Physical Parameters | Discovery Circumstances ]
ABOUT SSD CREDITS/AWARDS PRIVACY/COPYRIGHT GLOSSARY LINKS
FirstGov 2013-May-20 22:14 UT
(server date/time)  
NASA Home Page
Site Manager:   Donald K. Yeomans
Webmaster  Alan B. Chamberlin